Regional Weather Roundup
Issued by NWS

Home | Current Version | Previous Version | Text Only | Print | Product List | Glossary Off
Versions: 1 2 3 4 5 6 7 8 9 10 11 12 13 14 15 16 17 18 19 20 21 22 23 24 25 26 27 28 29 30 31 32 33 34 35 36 37 38 39 40 41 42 43 44 45 46 47 48 49 50

000
ASUS45 KCYS 280910
RWRWY

WYOMING REGIONAL WEATHER ROUNDUP
NATIONAL WEATHER SERVICE CHEYENNE WY
300 AM MDT SUN MAY 28 2017

NOTE:  "FAIR" INDICATES FEW OR NO CLOUDS BELOW 12,000 FEET
WITH NO SIGNIFICANT WEATHER AND/OR OBSTRUCTIONS TO VISIBILITY.

WYZ001-281000-
YELLOWSTONE NATIONAL PARK

CITY           SKY/WX    TMP DP  RH WIND       PRES   REMARKS
LK YELLOWSTONE   N/A     28  28 100 CALM      30.41R
W YELLOWSTONE  NOT AVBL

$$
WYZ002>013-054>058-071-098>099-281000-
NORTHERN WYOMING

CITY           SKY/WX    TMP DP  RH WIND       PRES   REMARKS
JACKSON        FAIR      34  32  93 CALM      30.36R
CODY           FAIR      53  33  46 SW7       30.24S
GREYBULL       CLOUDY    52  36  54 S5        30.18S
WORLAND          N/A     43  38  82 S7        30.19S
SHERIDAN       FAIR      53  38  56 NW8       30.15R
BUFFALO        FAIR      53  34  48 NW13      30.18S
GILLETTE       FAIR      48  40  73 W14       30.12F
HULETT         CLOUDY    52  41  66 SW7       30.12R
NEWCASTLE      FAIR      41  37  87 CALM      30.14S

$$
WYZ014>020-022>026-101>103-281000-
CENTRAL WYOMING

CITY           SKY/WX    TMP DP  RH WIND       PRES   REMARKS
BIG PINEY      FAIR      36  30  79 CALM      30.36R
PINEDALE       FAIR      32  30  93 W3        30.36S
DUBOIS         FAIR      36  30  80 W9        30.34S WCI  29
LANDER         FAIR      46  31  55 CALM      30.26S
RIVERTON       FAIR      45  34  65 NW13      30.26S
CASPER         MOCLDY    42  36  79 W8        30.23S
DOUGLAS        FAIR      42  37  82 NW7       30.21R

$$
WYZ021-027>030-104>119-281000-
SOUTHERN WYOMING

CITY           SKY/WX    TMP DP  RH WIND       PRES   REMARKS
EVANSTON       FAIR      42  30  62 SE6       30.34F
KEMMERER         N/A     36  30  80 N12       30.36S WCI  27
FORT BRIDGER   FAIR      46  30  53 SW3       30.37S
ROCK SPRINGS   FAIR      45  28  51 SE7       30.33S
DIXON            N/A     36  29  75 NE3       30.36S
RAWLINS        FAIR      33  29  85 CALM      30.32S
SARATOGA       FAIR      32  32 100 SE5       30.34S WCI  27
LARAMIE        FAIR      30  27  88 SW10      30.31S WCI  21
CHEYENNE       FAIR      42  32  67 W10       30.25S
TORRINGTON     FAIR      43  38  82 W6        30.15F
PINE BLUFFS    FAIR      37  36  93 MISG      30.22S

$$



USA.gov is the U.S. government's official web portal to all federal, state and local government web resources and services.